Location: *
(45.9500°N, 9.0833°E)
Time: 15:32:00
(UTC+00:00)

SL-16 R/B - Pass Details

Date: 03 March 2021
Orbit: 843 x 846 km, 71.0° (Epoch: 14 April)

Event Time Altitude Azimuth Distance (km) Brightness Sun altitude
Rises 19:31:39 0° 248° (WSW) 3,396 6.1 -24.6°
Reaches altitude 10° 19:34:39 10° 263° (W) 2,465 5.5 -25.1°
Maximum altitude 19:39:00 22° 314° (NW) 1,760 4.5 -25.8°
Drops below altitude 10° 19:43:22 10° 5° (N) 2,477 4.8 -26.6°
Sets 19:46:24 0° 20° (NNE) 3,416 5.4 -27.1°
